Saint Bonnet de Bellac- Haute Vienne - France
Donnes mto: samedi, 28/01/2012
Date Horaire Temp. E. Hum. E. P.atmo. Pluie Vent Direction Direction Ensoleilleme Solaire P. de rose Temp au vent Rafales
28/01/2012 00:00 -0,2 C 92 % 1025,1 hPa 0,0 mm 0,0 km/h (0 Bft) NO 315 0 min 0 W/m -1,3 C -0,2 C 0,0 km/h (0 Bft)
28/01/2012 00:10 -0,3 C 92 % 1025,1 hPa 0,0 mm 0,0 km/h (0 Bft) NO 315 0 min 0 W/m -1,4 C -0,3 C 0,0 km/h (0 Bft)
28/01/2012 00:20 -0,3 C 93 % 1025,1 hPa 0,0 mm 0,0 km/h (0 Bft) NO 315 0 min 0 W/m -1,3 C -0,3 C 0,0 km/h (0 Bft)
28/01/2012 00:30 -0,4 C 93 % 1025,1 hPa 0,0 mm 0,0 km/h (0 Bft) NO 315 0 min 0 W/m -1,4 C -0,4 C 0,0 km/h (0 Bft)
28/01/2012 00:40 -0,4 C 93 % 1025,1 hPa 0,0 mm 0,0 km/h (0 Bft) NO 315 0 min 0 W/m -1,4 C -0,4 C 0,0 km/h (0 Bft)
28/01/2012 00:50 -0,4 C 93 % 1025,0 hPa 0,0 mm 0,0 km/h (0 Bft) NO 315 0 min 0 W/m -1,4 C -0,4 C 0,0 km/h (0 Bft)
28/01/2012 01:00 0,0 C 93 % 1024,9 hPa 0,0 mm 0,0 km/h (0 Bft) SO 225 0 min 0 W/m -1,0 C 0,0 C 0,0 km/h (0 Bft)
28/01/2012 01:10 0,2 C 93 % 1024,8 hPa 0,0 mm 0,0 km/h (0 Bft) SO 225 0 min 0 W/m -0,8 C 0,2 C 0,0 km/h (0 Bft)
28/01/2012 01:20 0,4 C 93 % 1024,7 hPa 0,0 mm 0,0 km/h (0 Bft) S-SO 202 0 min 0 W/m -0,6 C 0,4 C 0,0 km/h (0 Bft)
28/01/2012 01:30 0,6 C 93 % 1024,7 hPa 0,0 mm 0,0 km/h (0 Bft) S-SO 202 0 min 0 W/m -0,4 C 0,6 C 0,0 km/h (0 Bft)
28/01/2012 01:40 0,6 C 93 % 1024,7 hPa 0,0 mm 0,0 km/h (0 Bft) S-SO 202 0 min 0 W/m -0,4 C 0,6 C 0,0 km/h (0 Bft)
28/01/2012 01:50 0,6 C 93 % 1024,6 hPa 0,0 mm 0,0 km/h (0 Bft) S-SO 202 0 min 0 W/m -0,4 C 0,6 C 0,0 km/h (0 Bft)
28/01/2012 02:02 0,6 C 93 % 1024,7 hPa 0,0 mm 0,0 km/h (0 Bft) SO 225 0 min 0 W/m -0,4 C 0,6 C 0,0 km/h (0 Bft)
28/01/2012 02:10 0,5 C 93 % 1024,6 hPa 0,0 mm 0,0 km/h (0 Bft) SO 225 0 min 0 W/m -0,5 C 0,5 C 0,0 km/h (0 Bft)
28/01/2012 02:20 0,6 C 94 % 1024,6 hPa 0,0 mm 0,0 km/h (0 Bft) SO 225 0 min 0 W/m -0,3 C 0,6 C 0,0 km/h (0 Bft)
28/01/2012 02:30 0,6 C 94 % 1024,6 hPa 0,0 mm 0,0 km/h (0 Bft) S-SO 202 0 min 0 W/m -0,3 C 0,6 C 3,2 km/h (1 Bft)
28/01/2012 02:40 0,6 C 94 % 1024,7 hPa 0,0 mm 0,0 km/h (0 Bft) S-SO 202 0 min 0 W/m -0,3 C 0,6 C 0,0 km/h (0 Bft)
28/01/2012 02:50 0,6 C 94 % 1024,7 hPa 0,0 mm 0,0 km/h (0 Bft) S-SO 202 0 min 0 W/m -0,3 C 0,6 C 0,0 km/h (0 Bft)
28/01/2012 03:00 0,7 C 94 % 1024,7 hPa 0,0 mm 0,0 km/h (0 Bft) S-SO 202 0 min 0 W/m -0,2 C 0,7 C 0,0 km/h (0 Bft)
28/01/2012 03:10 0,6 C 94 % 1024,6 hPa 0,0 mm 0,0 km/h (0 Bft) S 180 0 min 0 W/m -0,3 C 0,6 C 0,0 km/h (0 Bft)
28/01/2012 03:20 0,5 C 94 % 1024,6 hPa 0,0 mm 0,0 km/h (0 Bft) S-SO 202 0 min 0 W/m -0,4 C 0,5 C 0,0 km/h (0 Bft)
28/01/2012 03:30 0,6 C 94 % 1024,6 hPa 0,0 mm 0,0 km/h (0 Bft) SO 225 0 min 0 W/m -0,3 C 0,6 C 3,2 km/h (1 Bft)
28/01/2012 03:40 0,7 C 94 % 1024,5 hPa 0,0 mm 0,0 km/h (0 Bft) S 180 0 min 0 W/m -0,2 C 0,7 C 0,0 km/h (0 Bft)
28/01/2012 03:50 0,6 C 94 % 1024,4 hPa 0,0 mm 0,0 km/h (0 Bft) S 180 0 min 0 W/m -0,3 C 0,6 C 0,0 km/h (0 Bft)
28/01/2012 04:00 0,6 C 94 % 1024,2 hPa 0,0 mm 0,0 km/h (0 Bft) S-SO 202 0 min 0 W/m -0,3 C 0,6 C 0,0 km/h (0 Bft)
28/01/2012 04:10 0,6 C 94 % 1024,2 hPa 0,0 mm 0,0 km/h (0 Bft) S-SO 202 0 min 0 W/m -0,3 C 0,6 C 0,0 km/h (0 Bft)
28/01/2012 04:20 0,5 C 94 % 1024,2 hPa 0,0 mm 0,0 km/h (0 Bft) S-SO 202 0 min 0 W/m -0,4 C 0,5 C 0,0 km/h (0 Bft)
28/01/2012 04:30 0,6 C 95 % 1024,1 hPa 0,0 mm 0,7 km/h (0 Bft) S-SO 202 0 min 0 W/m -0,1 C 0,6 C 0,7 km/h (0 Bft)
28/01/2012 04:40 0,6 C 95 % 1024,1 hPa 0,0 mm 0,0 km/h (0 Bft) S-SO 202 0 min 0 W/m -0,1 C 0,6 C 0,0 km/h (0 Bft)
28/01/2012 04:50 0,7 C 95 % 1023,8 hPa 0,0 mm 0,0 km/h (0 Bft) S-SO 202 0 min 0 W/m -0,0 C 0,7 C 0,0 km/h (0 Bft)
28/01/2012 05:00 0,8 C 95 % 1023,7 hPa 0,0 mm 1,1 km/h (1 Bft) S-SO 202 0 min 0 W/m 0,1 C 0,8 C 1,1 km/h (1 Bft)
28/01/2012 05:10 0,9 C 95 % 1023,7 hPa 0,0 mm 0,0 km/h (0 Bft) S-SO 202 0 min 0 W/m 0,2 C 0,9 C 0,0 km/h (0 Bft)
28/01/2012 05:20 1,1 C 95 % 1023,6 hPa 0,0 mm 0,7 km/h (0 Bft) S-SO 202 0 min 0 W/m 0,4 C 1,1 C 4,3 km/h (1 Bft)
28/01/2012 05:30 1,1 C 95 % 1023,8 hPa 0,1 mm 0,0 km/h (0 Bft) SO 225 0 min 0 W/m 0,4 C 1,1 C 0,0 km/h (0 Bft)
28/01/2012 05:40 1,4 C 95 % 1023,6 hPa 0,1 mm 0,4 km/h (0 Bft) SO 225 0 min 0 W/m 0,7 C 1,4 C 1,4 km/h (1 Bft)
28/01/2012 05:50 1,5 C 95 % 1023,6 hPa 0,0 mm 0,0 km/h (0 Bft) SO 225 0 min 0 W/m 0,8 C 1,5 C 0,0 km/h (0 Bft)
28/01/2012 06:00 1,6 C 95 % 1023,5 hPa 0,0 mm 0,0 km/h (0 Bft) SO 225 0 min 0 W/m 0,9 C 1,6 C 0,0 km/h (0 Bft)
28/01/2012 06:10 1,7 C 95 % 1023,5 hPa 0,0 mm 0,0 km/h (0 Bft) S-SO 202 0 min 0 W/m 1,0 C 1,7 C 0,0 km/h (0 Bft)
28/01/2012 06:20 1,8 C 95 % 1023,4 hPa 0,0 mm 0,0 km/h (0 Bft) SO 225 0 min 0 W/m 1,1 C 1,8 C 0,0 km/h (0 Bft)
28/01/2012 06:30 1,8 C 95 % 1023,5 hPa 0,0 mm 0,0 km/h (0 Bft) S-SO 202 0 min 0 W/m 1,1 C 1,8 C 0,0 km/h (0 Bft)
28/01/2012 06:40 1,9 C 95 % 1023,5 hPa 0,0 mm 0,0 km/h (0 Bft) SO 225 0 min 0 W/m 1,2 C 1,9 C 0,0 km/h (0 Bft)
28/01/2012 06:50 1,9 C 95 % 1023,6 hPa 0,0 mm 0,0 km/h (0 Bft) SO 225 0 min 0 W/m 1,2 C 1,9 C 0,0 km/h (0 Bft)
28/01/2012 07:00 1,9 C 95 % 1023,6 hPa 0,0 mm 0,0 km/h (0 Bft) SO 225 0 min 0 W/m 1,2 C 1,9 C 0,0 km/h (0 Bft)
28/01/2012 07:10 1,9 C 95 % 1023,7 hPa 0,0 mm 0,0 km/h (0 Bft) SO 225 0 min 0 W/m 1,2 C 1,9 C 0,0 km/h (0 Bft)
28/01/2012 07:20 2,0 C 95 % 1023,7 hPa 0,0 mm 0,7 km/h (0 Bft) S-SO 202 0 min 0 W/m 1,3 C 2,0 C 4,0 km/h (1 Bft)
28/01/2012 07:30 1,9 C 95 % 1023,7 hPa 0,0 mm 0,0 km/h (0 Bft) SO 225 0 min 0 W/m 1,2 C 1,9 C 1,8 km/h (1 Bft)
28/01/2012 07:40 1,9 C 95 % 1023,7 hPa 0,0 mm 2,9 km/h (1 Bft) SO 225 0 min 0 W/m 1,2 C 1,9 C 6,5 km/h (2 Bft)
28/01/2012 07:50 1,9 C 95 % 1023,7 hPa 0,0 mm 2,9 km/h (1 Bft) SO 225 0 min 0 W/m 1,2 C 1,9 C 4,3 km/h (1 Bft)
28/01/2012 08:00 1,8 C 95 % 1023,6 hPa 0,0 mm 0,4 km/h (0 Bft) SO 225 0 min 0 W/m 1,1 C 1,8 C 4,3 km/h (1 Bft)
28/01/2012 08:10 1,8 C 95 % 1023,7 hPa 0,0 mm 2,2 km/h (1 Bft) O-SO 247 0 min 0 W/m 1,1 C 1,8 C 7,6 km/h (2 Bft)
28/01/2012 08:20 1,8 C 95 % 1023,7 hPa 0,1 mm 0,0 km/h (0 Bft) SO 225 0 min 0 W/m 1,1 C 1,8 C 0,0 km/h (0 Bft)
28/01/2012 08:30 1,8 C 95 % 1023,7 hPa 0,0 mm 0,7 km/h (0 Bft) S-SO 202 0 min 0 W/m 1,1 C 1,8 C 4,0 km/h (1 Bft)
28/01/2012 08:40 1,8 C 95 % 1023,7 hPa 0,0 mm 0,0 km/h (0 Bft) SO 225 2 min 0 W/m 1,1 C 1,8 C 0,0 km/h (0 Bft)
28/01/2012 08:50 1,8 C 95 % 1023,8 hPa 0,0 mm 2,2 km/h (1 Bft) SO 225 2 min 0 W/m 1,1 C 1,8 C 3,6 km/h (1 Bft)
28/01/2012 09:00 1,9 C 95 % 1023,9 hPa 0,1 mm 0,0 km/h (0 Bft) SO 225 2 min 0 W/m 1,2 C 1,9 C 0,0 km/h (0 Bft)
28/01/2012 09:10 2,0 C 95 % 1024,0 hPa 0,0 mm 0,4 km/h (0 Bft) O-SO 247 2 min 0 W/m 1,3 C 2,0 C 4,0 km/h (1 Bft)
28/01/2012 09:20 2,1 C 95 % 1023,9 hPa 0,0 mm 0,4 km/h (0 Bft) SO 225 2 min 0 W/m 1,4 C 2,1 C 3,6 km/h (1 Bft)
28/01/2012 09:30 2,2 C 95 % 1023,9 hPa 0,0 mm 0,4 km/h (0 Bft) SO 225 2 min 0 W/m 1,5 C 2,2 C 0,4 km/h (0 Bft)
28/01/2012 09:40 2,3 C 95 % 1023,8 hPa 0,0 mm 0,0 km/h (0 Bft) SO 225 2 min 0 W/m 1,6 C 2,3 C 0,0 km/h (0 Bft)
28/01/2012 09:50 2,3 C 95 % 1023,8 hPa 0,0 mm 0,0 km/h (0 Bft) O 270 2 min 0 W/m 1,6 C 2,3 C 0,0 km/h (0 Bft)
28/01/2012 10:00 2,2 C 95 % 1023,8 hPa 0,0 mm 1,8 km/h (1 Bft) SO 225 2 min 0 W/m 1,5 C 2,2 C 3,6 km/h (1 Bft)
28/01/2012 10:10 2,5 C 96 % 1023,9 hPa 0,0 mm 0,0 km/h (0 Bft) O-SO 247 2 min 0 W/m 1,9 C 2,5 C 0,0 km/h (0 Bft)
28/01/2012 10:20 3,4 C 96 % 1023,9 hPa 0,0 mm 0,4 km/h (0 Bft) SO 225 2 min 0 W/m 2,8 C 3,4 C 2,9 km/h (1 Bft)
28/01/2012 10:30 3,7 C 95 % 1023,9 hPa 0,0 mm 2,2 km/h (1 Bft) SO 225 2 min 0 W/m 3,0 C 3,7 C 3,6 km/h (1 Bft)
28/01/2012 10:40 3,6 C 95 % 1023,9 hPa 0,0 mm 0,7 km/h (0 Bft) SO 225 2 min 0 W/m 2,9 C 3,6 C 3,2 km/h (1 Bft)
28/01/2012 10:50 3,5 C 95 % 1024,0 hPa 0,0 mm 2,9 km/h (1 Bft) O 270 2 min 0 W/m 2,8 C 3,5 C 4,0 km/h (1 Bft)
28/01/2012 11:00 3,6 C 95 % 1024,0 hPa 0,0 mm 1,4 km/h (1 Bft) O-NO 292 2 min 0 W/m 2,9 C 3,6 C 4,0 km/h (1 Bft)
28/01/2012 11:10 3,6 C 95 % 1024,0 hPa 0,0 mm 0,4 km/h (0 Bft) O-NO 292 2 min 0 W/m 2,9 C 3,6 C 0,4 km/h (0 Bft)
28/01/2012 11:20 3,6 C 95 % 1024,0 hPa 0,0 mm 0,0 km/h (0 Bft) NO 315 2 min 0 W/m 2,9 C 3,6 C 2,9 km/h (1 Bft)
28/01/2012 11:30 3,6 C 95 % 1023,9 hPa 0,0 mm 0,0 km/h (0 Bft) O-NO 292 2 min 0 W/m 2,9 C 3,6 C 0,0 km/h (0 Bft)
28/01/2012 11:40 3,8 C 95 % 1024,0 hPa 0,0 mm 0,0 km/h (0 Bft) NO 315 2 min 0 W/m 3,1 C 3,8 C 0,0 km/h (0 Bft)
28/01/2012 11:50 3,8 C 95 % 1024,0 hPa 0,0 mm 1,4 km/h (1 Bft) NO 315 2 min 0 W/m 3,1 C 3,8 C 4,0 km/h (1 Bft)
28/01/2012 12:00 3,9 C 95 % 1024,0 hPa 0,0 mm 4,7 km/h (1 Bft) N-NO 337 2 min 0 W/m 3,2 C 3,0 C 7,6 km/h (2 Bft)
28/01/2012 12:10 3,9 C 95 % 1023,9 hPa 0,0 mm 0,0 km/h (0 Bft) N-NO 337 2 min 0 W/m 3,2 C 3,9 C 0,0 km/h (0 Bft)
28/01/2012 12:20 4,0 C 95 % 1023,9 hPa 0,0 mm 2,9 km/h (1 Bft) N 360 2 min 0 W/m 3,3 C 4,0 C 4,0 km/h (1 Bft)
28/01/2012 12:30 4,3 C 95 % 1023,8 hPa 0,0 mm 0,0 km/h (0 Bft) N 360 2 min 0 W/m 3,6 C 4,3 C 0,0 km/h (0 Bft)
28/01/2012 12:40 4,5 C 95 % 1023,7 hPa 0,0 mm 0,0 km/h (0 Bft) N-NO 337 2 min 0 W/m 3,8 C 4,5 C 3,2 km/h (1 Bft)
28/01/2012 12:50 4,6 C 94 % 1023,6 hPa 0,0 mm 0,0 km/h (0 Bft) N-NO 337 2 min 0 W/m 3,7 C 4,6 C 0,0 km/h (0 Bft)
28/01/2012 13:00 4,7 C 94 % 1023,5 hPa 0,0 mm 6,8 km/h (2 Bft) NO 315 2 min 0 W/m 3,8 C 3,1 C 8,3 km/h (2 Bft)
28/01/2012 13:10 4,8 C 94 % 1023,4 hPa 0,0 mm 0,0 km/h (0 Bft) N-NO 337 2 min 0 W/m 3,9 C 4,8 C 0,0 km/h (0 Bft)
28/01/2012 13:20 4,8 C 94 % 1023,3 hPa 0,0 mm 2,5 km/h (1 Bft) NE 45 2 min 0 W/m 3,9 C 4,8 C 4,3 km/h (1 Bft)
28/01/2012 13:30 4,9 C 94 % 1023,2 hPa 0,0 mm 2,9 km/h (1 Bft) N-NE 22 2 min 0 W/m 4,0 C 4,9 C 4,3 km/h (1 Bft)
28/01/2012 13:40 4,9 C 94 % 1023,2 hPa 0,0 mm 1,1 km/h (1 Bft) N-NE 22 2 min 0 W/m 4,0 C 4,9 C 1,1 km/h (1 Bft)
28/01/2012 13:50 4,9 C 94 % 1023,0 hPa 0,0 mm 0,4 km/h (0 Bft) N-NE 22 2 min 0 W/m 4,0 C 4,9 C 0,4 km/h (0 Bft)
28/01/2012 14:00 5,3 C 94 % 1023,1 hPa 0,0 mm 0,7 km/h (0 Bft) N-NE 22 2 min 0 W/m 4,4 C 5,3 C 4,0 km/h (1 Bft)
28/01/2012 14:10 6,1 C 93 % 1023,3 hPa 0,0 mm 2,9 km/h (1 Bft) NO 315 2 min 0 W/m 5,1 C 6,1 C 6,1 km/h (2 Bft)
28/01/2012 14:20 6,4 C 92 % 1023,1 hPa 0,0 mm 0,7 km/h (0 Bft) N-NO 337 2 min 0 W/m 5,2 C 6,4 C 0,7 km/h (0 Bft)
28/01/2012 14:30 6,8 C 90 % 1023,0 hPa 0,0 mm 5,0 km/h (1 Bft) N-NE 22 2 min 0 W/m 5,3 C 6,1 C 7,9 km/h (2 Bft)
28/01/2012 14:40 6,9 C 89 % 1022,9 hPa 0,0 mm 6,1 km/h (2 Bft) NO 315 2 min 0 W/m 5,2 C 5,9 C 10,4 km/h (2 Bft)
28/01/2012 14:50 7,0 C 87 % 1022,8 hPa 0,0 mm 0,0 km/h (0 Bft) NO 315 2 min 0 W/m 5,0 C 7,0 C 0,0 km/h (0 Bft)
28/01/2012 15:00 6,8 C 86 % 1022,7 hPa 0,0 mm 0,0 km/h (0 Bft) N-NO 337 2 min 0 W/m 4,6 C 6,8 C 0,0 km/h (0 Bft)
28/01/2012 15:10 6,4 C 85 % 1022,6 hPa 0,0 mm 0,0 km/h (0 Bft) N-NE 22 2 min 0 W/m 4,1 C 6,4 C 0,0 km/h (0 Bft)
28/01/2012 15:20 6,0 C 85 % 1022,5 hPa 0,0 mm 0,4 km/h (0 Bft) N 360 2 min 0 W/m 3,7 C 6,0 C 3,6 km/h (1 Bft)
28/01/2012 15:30 6,0 C 86 % 1022,3 hPa 0,0 mm 0,0 km/h (0 Bft) N-NE 22 2 min 0 W/m 3,8 C 6,0 C 3,2 km/h (1 Bft)
28/01/2012 15:40 5,9 C 86 % 1022,5 hPa 0,0 mm 1,4 km/h (1 Bft) NE 45 2 min 0 W/m 3,7 C 5,9 C 4,3 km/h (1 Bft)
28/01/2012 15:50 6,0 C 85 % 1022,6 hPa 0,0 mm 5,0 km/h (1 Bft) N 360 2 min 0 W/m 3,7 C 5,2 C 8,6 km/h (2 Bft)
28/01/2012 16:00 5,8 C 83 % 1022,6 hPa 0,0 mm 4,3 km/h (1 Bft) NE 45 2 min 0 W/m 3,1 C 5,8 C 7,9 km/h (2 Bft)
28/01/2012 16:10 5,5 C 83 % 1022,6 hPa 0,0 mm 1,1 km/h (1 Bft) NE 45 2 min 0 W/m 2,8 C 5,5 C 4,3 km/h (1 Bft)
28/01/2012 16:20 5,3 C 84 % 1022,7 hPa 0,0 mm 0,4 km/h (0 Bft) E-NE 67 2 min 0 W/m 2,8 C 5,3 C 0,4 km/h (0 Bft)
28/01/2012 16:30 5,1 C 84 % 1022,7 hPa 0,0 mm 0,0 km/h (0 Bft) NE 45 2 min 0 W/m 2,6 C 5,1 C 0,0 km/h (0 Bft)
28/01/2012 16:40 4,8 C 85 % 1022,7 hPa 0,0 mm 6,8 km/h (2 Bft) NE 45 2 min 0 W/m 2,5 C 3,2 C 9,0 km/h (2 Bft)
28/01/2012 16:50 4,6 C 85 % 1022,8 hPa 0,0 mm 0,0 km/h (0 Bft) NE 45 2 min 0 W/m 2,3 C 4,6 C 0,0 km/h (0 Bft)
28/01/2012 17:00 4,4 C 85 % 1022,8 hPa 0,0 mm 1,4 km/h (1 Bft) NE 45 2 min 0 W/m 2,1 C 4,4 C 3,2 km/h (1 Bft)
28/01/2012 17:10 4,2 C 86 % 1022,8 hPa 0,0 mm 1,8 km/h (1 Bft) NE 45 2 min 0 W/m 2,1 C 4,2 C 4,0 km/h (1 Bft)
28/01/2012 17:20 3,9 C 86 % 1022,9 hPa 0,0 mm 3,2 km/h (1 Bft) N-NE 22 2 min 0 W/m 1,8 C 3,9 C 4,3 km/h (1 Bft)
28/01/2012 17:30 3,7 C 87 % 1022,9 hPa 0,0 mm 1,1 km/h (1 Bft) NE 45 2 min 0 W/m 1,7 C 3,7 C 3,2 km/h (1 Bft)
28/01/2012 17:40 3,4 C 88 % 1022,9 hPa 0,0 mm 0,7 km/h (0 Bft) NE 45 2 min 0 W/m 1,6 C 3,4 C 4,0 km/h (1 Bft)
28/01/2012 17:50 3,1 C 88 % 1022,9 hPa 0,0 mm 1,4 km/h (1 Bft) NE 45 0 min 0 W/m 1,3 C 3,1 C 3,6 km/h (1 Bft)
28/01/2012 18:00 2,9 C 88 % 1023,0 hPa 0,0 mm 0,0 km/h (0 Bft) NE 45 0 min 0 W/m 1,1 C 2,9 C 0,0 km/h (0 Bft)
28/01/2012 18:10 2,5 C 88 % 1023,1 hPa 0,0 mm 0,0 km/h (0 Bft) NE 45 0 min 0 W/m 0,7 C 2,5 C 0,0 km/h (0 Bft)
28/01/2012 18:20 2,1 C 88 % 1023,2 hPa 0,0 mm 0,0 km/h (0 Bft) NE 45 0 min 0 W/m 0,3 C 2,1 C 0,0 km/h (0 Bft)
28/01/2012 18:30 1,8 C 89 % 1023,2 hPa 0,0 mm 0,0 km/h (0 Bft) NE 45 0 min 0 W/m 0,2 C 1,8 C 3,6 km/h (1 Bft)
28/01/2012 18:40 1,4 C 89 % 1023,3 hPa 0,0 mm 1,4 km/h (1 Bft) N-NE 22 0 min 0 W/m -0,2 C 1,4 C 2,9 km/h (1 Bft)
28/01/2012 18:50 1,4 C 89 % 1023,3 hPa 0,0 mm 0,0 km/h (0 Bft) NE 45 0 min 0 W/m -0,2 C 1,4 C 0,0 km/h (0 Bft)
28/01/2012 19:00 1,5 C 89 % 1023,5 hPa 0,0 mm 1,8 km/h (1 Bft) N-NE 22 0 min 0 W/m -0,1 C 1,5 C 4,0 km/h (1 Bft)
28/01/2012 19:10 1,6 C 90 % 1023,5 hPa 0,0 mm 0,0 km/h (0 Bft) N-NE 22 0 min 0 W/m 0,1 C 1,6 C 0,0 km/h (0 Bft)
28/01/2012 19:20 1,6 C 90 % 1023,5 hPa 0,0 mm 0,0 km/h (0 Bft) N-NE 22 0 min 0 W/m 0,1 C 1,6 C 0,0 km/h (0 Bft)
28/01/2012 19:30 1,8 C 91 % 1023,5 hPa 0,0 mm 1,8 km/h (1 Bft) N-NE 22 0 min 0 W/m 0,5 C 1,8 C 3,6 km/h (1 Bft)
28/01/2012 19:40 1,9 C 91 % 1023,6 hPa 0,0 mm 1,8 km/h (1 Bft) N-NE 22 0 min 0 W/m 0,6 C 1,9 C 6,5 km/h (2 Bft)
28/01/2012 19:50 2,1 C 91 % 1023,8 hPa 0,0 mm 1,1 km/h (1 Bft) N-NE 22 0 min 0 W/m 0,8 C 2,1 C 1,1 km/h (1 Bft)
28/01/2012 20:00 2,1 C 91 % 1023,9 hPa 0,0 mm 0,0 km/h (0 Bft) NE 45 0 min 0 W/m 0,8 C 2,1 C 0,0 km/h (0 Bft)
28/01/2012 20:10 2,0 C 91 % 1023,9 hPa 0,0 mm 1,4 km/h (1 Bft) NE 45 0 min 0 W/m 0,7 C 2,0 C 4,0 km/h (1 Bft)
28/01/2012 20:20 2,0 C 91 % 1023,9 hPa 0,0 mm 1,4 km/h (1 Bft) N-NE 22 0 min 0 W/m 0,7 C 2,0 C 6,5 km/h (2 Bft)
28/01/2012 20:30 2,1 C 92 % 1024,0 hPa 0,0 mm 1,4 km/h (1 Bft) NE 45 0 min 0 W/m 0,9 C 2,1 C 4,0 km/h (1 Bft)
28/01/2012 20:40 2,1 C 92 % 1024,0 hPa 0,0 mm 0,7 km/h (0 Bft) N-NE 22 0 min 0 W/m 0,9 C 2,1 C 4,0 km/h (1 Bft)
28/01/2012 20:50 2,2 C 92 % 1024,0 hPa 0,0 mm 1,4 km/h (1 Bft) NE 45 0 min 0 W/m 1,0 C 2,2 C 4,0 km/h (1 Bft)
28/01/2012 21:00 2,1 C 92 % 1024,0 hPa 0,0 mm 0,0 km/h (0 Bft) N-NE 22 0 min 0 W/m 0,9 C 2,1 C 0,0 km/h (0 Bft)
28/01/2012 21:10 1,9 C 92 % 1023,9 hPa 0,0 mm 0,0 km/h (0 Bft) N-NE 22 0 min 0 W/m 0,7 C 1,9 C 0,0 km/h (0 Bft)
28/01/2012 21:20 1,8 C 92 % 1023,9 hPa 0,0 mm 0,0 km/h (0 Bft) N-NE 22 0 min 0 W/m 0,6 C 1,8 C 0,0 km/h (0 Bft)
28/01/2012 21:30 1,7 C 92 % 1023,9 hPa 0,0 mm 0,4 km/h (0 Bft) N-NE 22 0 min 0 W/m 0,5 C 1,7 C 0,4 km/h (0 Bft)
28/01/2012 21:40 1,7 C 92 % 1023,8 hPa 0,0 mm 0,0 km/h (0 Bft) NE 45 0 min 0 W/m 0,5 C 1,7 C 1,4 km/h (1 Bft)
28/01/2012 21:50 1,7 C 92 % 1023,9 hPa 0,0 mm 0,0 km/h (0 Bft) NE 45 0 min 0 W/m 0,5 C 1,7 C 0,0 km/h (0 Bft)
28/01/2012 22:00 1,7 C 92 % 1023,9 hPa 0,0 mm 0,7 km/h (0 Bft) NE 45 0 min 0 W/m 0,5 C 1,7 C 4,0 km/h (1 Bft)
28/01/2012 22:10 1,8 C 92 % 1024,0 hPa 0,0 mm 0,0 km/h (0 Bft) N-NE 22 0 min 0 W/m 0,6 C 1,8 C 0,0 km/h (0 Bft)
28/01/2012 22:20 1,9 C 92 % 1024,0 hPa 0,0 mm 1,8 km/h (1 Bft) N-NE 22 0 min 0 W/m 0,7 C 1,9 C 2,9 km/h (1 Bft)
28/01/2012 22:30 1,9 C 92 % 1024,0 hPa 0,0 mm 3,6 km/h (1 Bft) N 360 0 min 0 W/m 0,7 C 1,9 C 6,5 km/h (2 Bft)
28/01/2012 22:40 1,9 C 92 % 1023,9 hPa 0,0 mm 0,4 km/h (0 Bft) N 360 0 min 0 W/m 0,7 C 1,9 C 3,2 km/h (1 Bft)
28/01/2012 22:50 1,9 C 92 % 1023,8 hPa 0,0 mm 0,0 km/h (0 Bft) NE 45 0 min 0 W/m 0,7 C 1,9 C 0,0 km/h (0 Bft)
28/01/2012 23:00 1,9 C 93 % 1023,8 hPa 0,0 mm 0,7 km/h (0 Bft) N-NE 22 0 min 0 W/m 0,9 C 1,9 C 4,0 km/h (1 Bft)
28/01/2012 23:10 2,0 C 93 % 1023,8 hPa 0,0 mm 0,7 km/h (0 Bft) N-NE 22 0 min 0 W/m 1,0 C 2,0 C 0,7 km/h (0 Bft)
28/01/2012 23:20 2,0 C 93 % 1023,9 hPa 0,0 mm 2,2 km/h (1 Bft) N-NE 22 0 min 0 W/m 1,0 C 2,0 C 6,5 km/h (2 Bft)
28/01/2012 23:30 2,1 C 93 % 1023,9 hPa 0,0 mm 4,0 km/h (1 Bft) N-NE 22 0 min 0 W/m 1,1 C 2,1 C 8,3 km/h (2 Bft)
28/01/2012 23:40 2,1 C 93 % 1023,8 hPa 0,0 mm 4,0 km/h (1 Bft) N 360 0 min 0 W/m 1,1 C 2,1 C 9,0 km/h (2 Bft)
28/01/2012 23:50 2,1 C 93 % 1023,8 hPa 0,0 mm 0,0 km/h (0 Bft) N-NE 22 0 min 0 W/m 1,1 C 2,1 C 0,0 km/h (0 Bft)
_ Min-Heure 00:50 16:10 15:30 - 23:50 - - - - 00:10 00:50 23:50
Minimum _ -0,4 C 83 % 1022,3 hPa - 0,0 km/h (0 Bft) - - - - -1,4 C -0,4 C 0,0 km/h (0 Bft)
_ Max-Heure 14:50 10:20 00:40 09:00 16:40 - - 17:40 23:50 14:30 14:50 14:40
Maximum _ 7,0 C 96 % 1025,1 hPa 0,1 mm 6,8 km/h
NE (2 Bft)
- - 2 min 0 W/m 5,3 C 7,0 C 10,4 km/h
NO (2 Bft)
Moyenne _ 2,5 C 92 % 1023,7 hPa #0,4 mm 0,9 km/h (0 Bft) SO - #1:50 h 0 W/m 1,4 C 2,5 C 2,1 km/h (1 Bft)
Saint Bonnet de Bellac- Haute Vienne - France